Погода в Москве

Погода в Москве : погода сейчас, прогноз погоды и архив. Всё, что Вы хотите узнать о погоде в Москве!

Хотите узнать прогноз погоды в Москве? Тогда Вам сюда: Погода в Москве

Поиск расширенной информации на нашем сайте:

Другие новости

Новости СМИ2

Главная страница сайта

Новости сайта

03.07.2017

Напоминаем, что на нашем специализированном сайте Метеоцентр.Азия вы можете получить высокодетализированные автоматические прогнозы погоды по пунктам России, СНГ и мира в авиационном формате (включающие направление и скорость ветра, видимость, явления погоды, количество и форму облачности, нижнюю и верхнюю границу облачности).

Рекомендуем: Нужна германская овчарка? Здесь очень дешево!

Погода в Москве - сегодня

Время (UTC), дата Ветер
(°,м/с) 
Видим.   Явления Облачность Т
(°С)
Тd
(°С)
f(%) Тe
(°С)
Pmin
(гПа)
dP
(гПа)
Po
(мм)
O2
(г/м3)
Тmin Tmax R s Состояние
почвы
21 23.07.17 тихо ()   н/о    ясно 
+13.8 +9.8 77 +15  1014.1  746  285           
00 24.07.17 тихо ()   н/о  дымка  ясно 
+11.4 +9.9 90 +13  1014.2  0.1  746  287           
03 24.07.17 тихо ()   10 км  дымка  ясно 
+13 +9.9 81 +14  1013.8  -0.3  746  285  +11.1         
06 24.07.17 260 (З) 10 км    ясно 
+19.8 +10 53 +22  1012.9  -0.4  746  278  +11.1        влажная 
09 24.07.17 300 (СЗ) 10 км    8/8 600 м 
[Cu Sc]
+20.2 +8.6 47 +20  1012.3  -0.6  745  278           
12 24.07.17 220 (ЮЗ) 10 км    6/6 600 м 
[Cu Sc]
+23.3 +8.2 38 +23  1011.5  -0.6  745  275           
15 24.07.17 310 (СЗ) 10 км    6/3 1000 м средняя, верхняя 
[Cu Sc|Ac trans|Ci fib]
+22.7 +6.8 36 +23  1011  -0.5  745  276           
18 24.07.17 тихо ()   10 км    8/0 верхняя 
[Ci fib]
+18.1 +9.8 58 +19  1011.4  0.1  745  280    +23.8       
21 24.07.17 тихо ()   н/о    6/0 верхняя 
[Ci fib]
+15.6 +11.3 76 +19  1011.4  0.1  745  282           
00 25.07.17 тихо ()   н/о  дымка  4/0 верхняя 
[Ci fib]
+13.5 +11.4 87 +17  1011.6  745  284           
03 25.07.17 тихо ()   4000 м  дымка  8/0 верхняя 
[Cc]
+14.3 +12.6 90 +19  1011.1  -0.4  744  282  +12.2         
06 25.07.17 тихо ()   10 км    3/0 средняя 
[Ac trans]
+21.8 +11.7 53 +25  1010.3  -0.3  744  275  +12.2        влажная 
09 25.07.17 210 (ЮЗ) 10 км    5/3 600 м верхняя 
[Cu hum|Ci fib]
+24.9 +11.6 43 +28  1009.7  -0.4  744  273           
12 25.07.17 тихо ()   10 км    10/10 600 м 
[Sc]
+22.3 +12.4 53 +27  1009.9  0.1  744  275           
15 25.07.17 080 (В) 10 км    10/10 600 м 
[Sc]
+21.6 +13.7 61 +28  1009.7  -0.3  744  275           
18 25.07.17 тихо ()   10 км    4/0 верхняя 
[Cs]
+18.5 +14.3 77 +26  1009.9  744  278    +25.4       
21 25.07.17 тихо ()   н/о  дымка  ясно 
+15.3 +13.9 91 +22  1009.9  -0.2  743  281           
00 26.07.17 тихо ()   н/о  дымка  ясно 
+14.3 +13.4 94 +21  1010.3  0.3  744  282           
03 26.07.17 тихо ()   4000 м  дымка  5/0 средняя, верхняя 
[Ac trans|Ci fib]
+14.4 +13.7 96 +21  1009.5  -0.8  743  282  +13.5         
06 26.07.17 160 (Ю) 10 км    8/0 верхняя 
[Cs]
+23.7 +13.1 51 +29  1008.5  -0.4  743  273  +13.5        влажная 
09 26.07.17 170 (Ю) 10 км    8/5 600 м средняя, верхняя 
[Cu hum|Ac cast|Ci fib]
+26.8 +12.4 41 +32  1008  -0.3  743  270           
12 26.07.17 160 (Ю) 10 км    9/6 1000 м средняя 
[Cu hum|Ac cast]
+26.6 +11.5 39 +30  1007.1  -1  742  270           
15 26.07.17 160 (Ю) 10 км    8/5 600 м верхняя 
[Cu Sc|Ci fib]
+26.6 +11.2 38 +30  1006.4  -0.7  741  270           
18 26.07.17 150 (ЮВ) 10 км    3/0 верхняя 
[Ci fib]
+23.3 +12.3 50 +28  1006.3  -0.2  741  273    +27.9       
21 26.07.17 140 (ЮВ) н/о    4/3 600 м верхняя 
[Sc|Ci fib]
+22.2 +13.1 56 +28  1006.4  741  274           
Время (UTC), дата Ветер
(°,м/с) 
Видим.   Явления Облачность Т
(°С)
Тd
(°С)
f(%) Тe
(°С)
Pmin
(гПа)
dP
(гПа)
Po
(мм)
O2
(г/м3)
Тmin Tmax R s Состояние
почвы

Для получения пояснительной информации подведите курсор к названию столбца.

ПОГОДА в Москве - архив

Всё, что Вы хотите узнать о погоде в Москве - удобно и подробно!

Выберите нужную дату (начиная с 1 января 2015* года) и нажмите кнопку "Найти".
Будут отображены архивные сводки погоды по пункту Москва, начиная с указанной даты.


Отображать данные в формате CSV (для использования в таблицах Excel)


Внимание! Наш архив погоды предназначен исключительно для личного некоммерческого использования в познавательных целях. Если Вам необходимы официальные справки о состоянии погоды (для производственных, юридических, коммерческих и т.п. целей), обращайтесь в органы Росгидромета.

*Примечание: данная дата относится к архиву по метеостанциям СССР (Россия, СНГ, Балтия).
Архив по метеостанциям Зарубежной Европы и Азии (кроме Китая) хранится 10 дней, по другим регионам земного шара (Китай, Африка, Америка, Австралия, Океания) - 1 день.

Москва - район местоположения метеостанции


Название, широта, долгота, высота метеостанции:
Москва (ВВЦ) 55.8°ш. 37.6°д. 156 м над ур. моря [Российская Федерация]

Дополнительная информация

В oтличие oт бoльшинства пoгoдных сайтoв мы публикуем пoдрoбную метеoинфoрмацию в детальнoм прoфессиoнальнoм фoрмате.

Характеристики температуры и влажнoсти вoздуха измеряются на высoте 2 м в тени вдали oт зданий и деревьев.
Скoрoсть ветра измеряется на высoте 10 м (на урoвне рoста челoвека скoрoсть ветра ниже в 1.5-2 раза). Если метеoстанция нахoдится в гoрoде или в лесу, тo скoрoсть ветра занижена на 2-4 м/с пo сравнению с oткрытым местoм. Скoрoсть ветра над акватoриями крупных рек и oзёр, а также на вершинах хoлмoв на 2-5 м/с выше, чем в oбычных услoвиях.
Атмoсфернoе давление в разных тoчках местнoсти мoжет значительнo oтличаться oт давления на метеoстанции, в зависимoсти oт услoвий рельефа (при пoдъёме на 10 м давление пoнижается примернo на 1 мм рт.ст.).